Vorticity
4 4 2 2 6 8 8 5 4 4 3 3 4 5 5 6 7 8 10 12 14 14 13 11 10 10 10 10 12 13 13 11 9 9 8 6 5 3 2 3 5 7 7 4 3 5 7 7 8 10 10 12 14 7 1 2 5 5 3 4 5 4 3 3 4 5 3 3 4 5 3 3 3 3 7 10 10 9 9 10 10 11 11 11 10
5 4 3 4 6 8 8 8 7 7 6 4 4 5 4 4 6 7 10 13 13 14 14 13 12 11 11 11 12 13 13 10 7 8 9 9 8 5 3 2 1 3 6 7 5 2 4 4 2 4 5 7 14 14 5 1 3 5 6 5 5 5 4 3 4 4 3 4 4 4 4 5 4 1 4 8 8 8 8 9 10 11 10 10 10
4 4 6 6 5 5 7 8 8 7 6 6 4 4 3 2 3 4 5 5 4 5 4 5 6 8 11 12 12 12 13 13 10 8 8 8 10 9 6 4 3 2 -0 2 4 2 2 2 1 1 2 1 4 10 10 6 3 4 7 8 7 6 5 3 2 3 5 5 3 3 5 5 4 2 1 5 8 8 7 8 9 9 9 10 11
6 7 8 7 6 6 7 6 6 5 4 4 3 4 7 9 10 10 9 9 8 7 6 6 5 6 8 11 14 14 12 12 12 12 9 6 6 9 9 6 5 5 4 2 1 3 5 4 3 4 5 2 0 7 12 8 5 3 3 8 10 9 8 6 4 4 4 5 4 4 4 4 7 3 -3 1 5 6 7 7 7 6 8 10 11
7 7 5 5 6 6 6 6 5 5 5 5 7 11 15 18 19 19 20 21 22 22 22 21 19 17 15 14 15 18 17 12 9 9 9 8 5 4 7 9 7 5 7 8 5 3 5 6 6 5 6 6 1 4 11 9 6 3 3 6 7 9 10 8 6 5 3 4 4 5 5 6 6 -1 -5 0 3 4 6 8 7 7 7 9 10
7 7 7 7 7 7 5 5 6 9 10 12 15 18 20 22 23 24 26 28 30 31 31 31 31 31 29 26 22 21 23 20 14 10 6 7 10 8 5 5 8 6 3 7 9 7 4 5 8 7 6 7 3 2 5 5 4 5 6 5 3 7 8 5 5 3 3 4 4 5 5 6 5 1 2 3 0 1 6 10 11 10 8 9 9
7 9 10 10 9 8 7 8 12 14 15 17 20 21 24 28 30 33 33 32 32 32 34 36 37 37 36 34 32 28 28 27 24 19 11 6 7 13 13 7 6 7 5 4 7 9 7 2 3 6 6 5 5 6 6 3 4 5 6 4 2 6 6 3 3 3 2 2 5 8 7 5 5 5 6 5 1 1 7 12 12 10 9 9 8
12 14 15 14 11 9 9 12 14 15 17 22 25 28 31 32 32 32 31 32 34 35 38 40 40 40 39 37 35 32 32 34 33 29 25 15 7 7 12 13 8 6 6 5 4 7 9 5 2 4 9 10 6 4 5 5 6 6 7 6 4 4 5 3 1 2 2 1 5 10 9 4 4 5 5 6 6 4 7 12 7 5 9 9 8
14 14 14 12 7 7 10 13 16 21 27 30 30 28 27 27 29 30 36 42 44 43 40 39 39 39 41 42 42 40 37 39 40 40 38 33 24 14 10 12 11 9 8 6 4 4 6 9 7 2 5 12 14 10 6 4 4 3 5 9 7 5 5 4 2 1 1 1 2 5 8 6 4 4 5 8 9 6 10 15 5 1 8 10 9
5 8 10 8 8 11 15 19 26 31 34 32 29 26 26 30 35 40 46 44 36 31 27 25 25 26 28 32 38 41 39 39 42 45 46 45 40 32 23 18 15 13 11 9 8 5 3 6 9 6 1 2 6 9 11 12 9 4 4 7 8 7 6 6 6 4 3 3 2 2 4 6 4 4 6 7 7 7 12 13 4 2 7 10 11
12 16 15 13 15 18 22 29 32 32 31 32 32 33 36 40 43 41 34 24 18 18 18 17 17 18 20 22 25 30 30 30 33 37 42 46 49 45 38 31 26 20 15 11 10 8 6 4 5 8 6 2 0 -2 -0 6 12 11 7 5 5 8 8 7 6 7 5 2 2 3 2 3 5 4 5 3 2 9 14 7 0 3 6 6 7
22 21 17 17 18 22 31 37 34 32 33 36 41 42 41 39 34 25 16 13 15 15 15 17 17 16 16 17 19 21 21 21 21 22 25 31 40 47 46 42 37 32 25 17 12 9 8 7 6 7 6 5 6 5 -0 -3 4 12 12 8 5 4 5 5 6 9 11 4 -1 1 2 3 3 5 8 7 6 8 7 3 -2 -1 3 5 5
21 17 17 19 22 27 35 37 36 36 35 39 44 40 34 26 17 12 12 15 14 11 13 17 18 17 16 15 16 16 17 17 17 17 17 17 21 29 39 44 45 42 37 30 21 13 8 7 7 7 8 5 4 9 11 3 -2 3 10 11 8 5 6 7 4 4 10 11 4 1 1 -2 -1 9 15 12 11 2 -9 2 6 -5 -2 5 5
18 18 22 26 31 32 32 38 41 33 29 36 37 26 19 13 8 11 16 15 11 9 10 13 15 18 19 17 17 17 16 14 15 16 16 16 17 17 22 31 39 44 44 43 37 26 15 8 6 7 8 8 4 3 10 14 7 -2 -0 6 9 8 10 18 22 19 16 12 5 1 2 5 9 18 17 10 13 5 -7 10 15 -2 -2 4 3
20 25 30 34 37 30 26 36 38 25 23 33 28 15 11 7 7 13 15 12 10 8 8 9 11 15 17 16 16 18 19 17 16 17 17 15 15 15 17 21 28 36 42 48 50 45 34 20 11 10 9 8 7 4 5 14 16 9 -1 -4 -1 0 -3 1 14 26 30 30 26 19 11 10 12 14 9 -0 3 7 9 21 15 -1 2 8 7
27 32 31 32 34 29 26 30 27 19 22 28 20 10 6 5 9 13 11 9 8 6 9 10 9 10 13 17 18 15 14 15 15 16 18 16 10 9 13 17 19 25 32 39 46 53 54 43 27 17 14 10 6 5 6 9 16 20 15 4 -2 -3 -7 -12 -14 -12 -5 7 22 34 34 26 16 10 6 -1 1 12 20 20 9 -3 -3 4 9
31 31 27 30 32 29 29 27 24 23 24 22 14 7 4 6 11 9 5 6 5 4 6 6 6 9 10 17 25 18 9 11 12 11 13 15 13 11 11 13 16 19 23 28 33 41 51 58 51 36 27 22 12 3 2 6 9 14 22 24 15 6 1 -2 -8 -15 -20 -22 -16 2 21 28 21 11 4 1 4 11 14 9 -1 -9 -13 -7 4
31 29 26 30 28 21 22 25 25 24 20 15 11 7 5 9 11 6 3 2 1 2 2 3 7 12 13 17 24 22 14 11 12 13 14 15 16 16 14 14 14 15 18 22 24 28 34 46 54 50 42 39 33 18 3 -1 2 4 11 23 27 23 15 6 1 -2 -2 -2 -7 -10 -7 1 9 11 10 9 2 -1 2 -0 -9 -13 -13 -6 2
30 29 27 27 21 10 12 20 21 17 15 12 9 6 5 10 11 6 2 -0 -2 -0 2 5 8 12 16 17 19 21 17 13 13 13 14 15 16 16 15 15 14 13 14 17 20 22 25 30 39 45 44 42 45 41 24 7 1 -0 -0 7 16 24 25 21 14 5 1 3 7 4 -5 -9 -4 1 1 3 1 -1 4 3 -2 -1 3 5 6
29 27 24 21 16 7 7 15 16 13 11 9 8 7 6 10 11 8 4 -0 -3 -2 1 7 13 15 17 17 17 19 16 12 11 11 11 12 14 15 15 15 15 13 11 12 14 17 20 24 28 33 36 37 39 43 41 28 15 7 -0 -2 2 10 18 22 22 19 12 8 8 12 9 2 -1 -4 -10 -12 -11 -9 -6 -5 -2 5 9 10 9
28 24 20 16 14 11 9 12 11 10 10 8 7 8 8 11 10 10 8 3 0 2 3 8 16 21 19 17 18 19 18 14 11 9 10 11 12 12 13 14 15 14 11 9 10 12 15 18 22 27 31 33 33 34 38 36 30 23 14 4 -1 1 7 14 18 20 19 15 9 7 8 8 8 6 4 0 -4 -8 -12 -13 -13 -9 -3 4 7
24 20 18 13 13 13 12 10 9 10 10 8 8 8 11 13 11 9 9 6 5 8 11 14 17 19 17 17 18 18 18 16 13 12 10 11 12 12 11 11 12 13 11 9 9 10 12 13 15 20 26 32 35 35 35 35 32 30 28 23 14 7 4 5 10 16 18 19 16 10 6 6 7 8 7 7 7 6 4 2 -0 -3 -4 -1 2
20 16 16 11 10 10 12 11 10 9 9 8 10 10 11 14 13 11 10 10 12 13 16 19 17 13 12 14 17 18 18 16 14 13 11 10 13 13 12 12 12 13 13 11 9 10 12 14 13 13 17 23 30 35 39 40 37 32 30 30 28 23 16 7 4 7 10 14 16 16 13 9 8 9 10 9 8 7 6 6 7 7 5 2 -0
16 13 11 9 6 6 11 13 10 11 11 10 12 12 11 11 11 13 13 13 15 14 16 19 16 11 9 11 14 17 18 16 13 12 11 10 11 12 13 12 11 14 15 14 12 13 14 17 18 17 16 16 19 24 31 38 41 39 34 31 30 29 27 20 12 7 6 7 8 10 12 11 10 9 9 10 9 9 8 6 5 6 6 5 4
13 11 9 9 6 5 8 9 7 9 10 11 12 12 12 11 9 12 14 13 12 12 13 15 16 13 10 10 13 15 17 16 15 12 11 11 11 11 12 12 11 13 15 14 14 14 14 14 15 17 17 18 17 17 19 25 32 36 35 32 30 29 29 29 24 15 10 8 7 5 5 6 7 7 7 7 6 7 8 8 8 8 8 8 7
10 9 11 10 8 8 9 8 8 9 8 9 11 10 11 12 11 11 11 10 8 8 10 11 13 14 12 11 11 12 14 16 16 16 14 12 12 12 12 11 11 11 12 12 11 11 11 10 11 12 12 14 16 16 16 17 21 27 31 32 31 30 29 28 28 24 18 13 11 8 6 4 4 5 5 4 4 4 4 6 8 10 12 14 14
9 10 11 10 9 10 11 11 10 9 7 6 7 8 9 11 12 11 8 6 5 5 8 10 11 12 13 11 9 9 10 11 13 15 16 15 13 13 13 12 11 11 12 10 9 8 7 6 8 9 9 9 10 11 12 12 13 15 20 25 29 31 32 31 31 31 28 24 19 14 10 6 4 4 4 5 5 3 1 1 2 5 9 12 15
14 13 12 12 12 12 11 11 7 6 7 6 7 9 10 10 11 9 7 5 4 5 7 9 10 11 12 11 10 10 9 9 10 11 13 16 15 15 15 14 12 10 10 9 8 7 5 5 4 4 5 5 5 6 7 8 10 10 9 12 16 20 24 28 32 36 38 40 39 36 32 26 18 11 6 7 8 9 8 4 -1 -2 1 4 7
14 14 14 13 15 15 13 12 10 9 9 9 11 12 11 11 10 8 9 7 6 8 10 11 10 10 12 12 12 12 10 9 9 9 10 13 15 16 16 17 16 13 11 9 7 6 5 4 3 2 3 2 1 2 2 2 4 5 5 7 8 9 11 12 15 21 27 33 39 43 48 50 48 41 30 21 15 12 11 11 9 4 1 2 4
9 10 11 11 14 16 16 16 16 16 16 15 15 14 13 13 12 11 12 12 9 9 13 16 14 11 11 13 14 13 11 9 9 9 10 11 13 16 16 16 17 16 14 11 8 6 5 4 4 4 3 3 3 3 2 1 2 2 3 3 4 6 6 6 5 5 7 11 15 19 23 29 38 45 49 47 42 36 28 22 20 17 13 10 8
7 7 9 12 13 14 16 17 18 19 19 18 17 18 15 13 13 11 9 10 10 11 14 17 16 14 13 13 15 15 13 11 9 9 10 11 12 15 16 17 17 16 15 15 12 9 7 5 5 4 4 4 4 3 3 3 2 2 3 3 4 4 4 4 4 3 2 2 3 5 7 9 12 16 24 31 37 43 45 41 34 26 23 21 16
8 8 9 11 11 11 12 13 14 14 14 14 14 15 13 9 7 7 6 6 8 8 12 14 13 13 14 13 15 17 15 12 10 9 9 9 11 14 16 17 17 16 16 16 15 14 12 9 7 6 6 5 4 5 6 7 8 8 7 6 5 6 6 6 6 6 6 4 3 3 4 6 8 9 10 12 15 20 27 35 40 35 26 23 23
8 9 9 10 10 11 11 9 10 11 9 10 9 7 8 8 5 4 4 5 6 6 8 12 12 12 13 14 16 18 17 14 11 9 8 8 11 14 15 16 17 19 19 18 17 17 16 14 12 9 7 7 7 8 8 10 12 11 9 9 8 6 6 7 9 9 9 8 7 7 6 6 7 8 10 12 14 15 14 16 28 39 35 22 17
8 9 10 14 11 7 9 10 13 17 18 18 18 15 16 17 13 12 12 9 8 7 7 10 12 12 12 13 15 19 19 14 11 10 8 8 11 15 18 19 19 20 19 18 17 16 16 16 15 14 13 12 12 13 13 12 11 9 9 10 9 8 7 7 8 10 12 14 15 16 17 16 14 13 15 16 16 18 17 12 12 26 41 37 18
8 10 10 14 10 3 9 17 18 19 18 17 20 24 25 26 24 24 25 23 19 14 9 10 12 13 13 13 15 20 20 14 12 10 8 11 16 19 21 21 20 20 20 20 19 18 16 16 15 15 15 13 11 11 11 10 10 11 13 13 15 16 14 12 13 15 19 24 30 33 34 31 28 28 28 30 28 23 20 16 10 11 26 43 37
6 10 11 12 9 3 11 22 19 15 14 14 19 25 29 31 30 28 29 31 29 22 15 12 12 13 15 14 17 21 19 14 10 9 12 17 21 21 21 19 19 18 17 17 17 17 16 16 15 14 13 12 13 14 15 16 18 18 18 19 21 23 24 27 30 31 33 35 35 34 32 30 33 34 33 36 39 34 25 19 15 12 12 27 45
4 8 10 9 8 7 13 21 18 13 14 17 21 24 26 28 30 31 31 32 32 26 18 13 11 12 15 16 20 21 17 11 9 12 19 24 21 16 14 14 15 15 15 15 15 14 14 14 14 16 18 19 20 21 22 22 21 22 23 23 23 24 29 34 35 34 32 27 21 19 21 25 28 28 28 34 41 42 37 27 18 16 14 15 32
8 8 9 6 5 9 17 20 18 15 14 17 20 22 25 29 33 34 33 34 36 32 22 15 13 13 16 19 21 18 12 10 15 21 25 22 15 12 12 13 14 14 14 16 18 23 27 30 33 36 37 38 37 34 32 29 26 24 21 19 20 24 29 30 25 19 14 12 15 19 20 21 21 20 24 31 37 40 42 38 27 20 18 17 21
10 7 8 8 5 10 18 18 17 18 15 17 21 21 25 37 43 40 34 32 36 37 28 19 15 15 20 22 18 14 12 16 21 23 20 14 10 11 13 13 15 18 23 30 35 37 36 33 32 30 27 29 30 29 29 30 29 25 22 20 19 21 28 26 13 7 9 16 24 21 11 8 11 16 23 27 32 41 44 40 35 25 22 25 21
10 5 4 9 7 10 19 19 17 19 17 17 20 18 23 39 44 40 36 34 37 38 28 19 18 20 22 19 13 14 17 20 21 17 12 10 11 13 15 18 25 31 35 33 27 21 16 13 12 11 10 10 12 14 17 22 24 25 28 28 21 22 31 23 4 1 11 16 17 12 7 11 17 23 32 34 34 41 44 38 37 33 28 29 24
8 5 3 8 7 7 17 20 18 19 17 18 20 14 18 32 36 36 37 35 34 30 23 21 23 21 17 14 14 18 20 18 16 12 11 13 16 19 24 28 30 27 19 13 8 7 10 10 8 9 10 10 12 15 16 17 17 19 24 26 26 31 32 17 0 3 12 13 13 14 16 23 27 27 34 40 39 42 40 33 35 36 28 24 23
7 8 4 8 9 7 14 20 20 19 16 17 20 13 12 21 25 25 27 25 23 23 23 23 20 14 13 16 18 19 17 14 13 14 17 22 24 26 27 22 15 9 5 6 9 11 11 8 5 7 7 7 11 15 17 15 13 15 21 25 29 32 24 11 6 10 11 11 14 18 21 25 22 15 15 20 29 41 44 34 30 30 24 19 20
8 9 4 6 10 9 14 19 21 21 16 16 21 17 13 18 20 20 22 22 22 22 19 15 13 15 19 19 17 15 13 14 18 22 25 26 24 22 18 8 4 5 7 9 11 10 7 4 4 7 8 9 10 11 16 19 14 12 15 16 18 19 14 11 15 15 11 13 15 16 18 19 16 13 12 10 13 29 41 36 28 24 18 17 18
7 8 5 6 11 13 14 17 23 22 15 15 21 19 19 23 24 22 23 20 17 14 11 13 19 21 18 13 11 14 16 20 24 25 22 19 16 12 6 1 4 10 11 12 14 13 9 6 6 8 9 12 13 12 17 24 23 18 13 11 13 12 7 13 23 19 12 13 15 12 12 15 17 17 17 15 14 23 34 32 23 19 18 16 13
6 7 7 5 11 17 16 17 23 24 15 14 18 20 22 24 21 18 16 11 10 12 15 20 21 15 10 10 14 19 22 24 22 18 15 12 9 5 2 1 5 10 11 12 13 14 12 10 10 13 11 8 11 15 18 25 33 33 24 19 20 17 15 26 30 19 11 13 12 6 7 18 25 22 19 20 19 21 30 30 16 10 16 20 15
6 7 7 3 9 20 20 17 23 24 16 13 15 16 17 16 13 12 10 9 14 19 21 18 12 6 9 15 20 25 24 18 13 12 11 9 5 2 2 3 5 7 9 10 12 16 18 14 10 11 10 5 7 12 11 14 29 39 35 30 32 32 34 34 20 4 7 15 12 8 14 24 26 19 15 19 18 17 30 40 31 17 15 18 15
4 4 7 5 13 25 22 16 23 25 16 13 15 12 8 9 11 11 12 15 20 21 16 9 4 8 16 21 23 23 15 6 7 10 7 6 4 2 1 3 5 7 8 7 8 12 16 15 11 8 9 9 7 7 11 15 24 31 27 23 26 27 25 20 10 6 13 15 13 16 22 22 20 16 12 13 12 9 13 22 29 32 31 25 15
5 5 6 5 16 29 22 14 23 26 15 13 17 11 5 7 10 11 17 22 19 14 9 4 6 17 23 23 24 18 3 -1 8 9 4 4 4 1 3 6 7 8 9 9 9 9 10 17 18 9 10 16 11 6 14 20 20 17 10 6 13 20 19 17 18 19 17 12 12 17 16 10 11 17 16 10 6 6 8 7 10 20 30 32 27
4 4 4 7 20 30 22 14 22 26 17 13 17 14 9 7 9 16 23 21 12 8 5 3 14 27 25 19 21 13 -2 0 10 9 7 7 3 1 8 9 5 6 11 12 13 11 10 21 25 15 12 15 10 8 18 24 24 25 16 4 4 9 11 16 22 22 17 12 10 12 11 6 7 13 16 12 10 16 22 20 15 12 13 16 20
5 3 6 18 29 29 19 14 19 26 23 13 11 16 13 6 11 23 23 12 5 5 2 9 27 33 19 13 17 9 -3 0 9 9 9 11 7 7 11 6 0 5 9 8 9 11 14 19 23 22 23 20 11 13 23 26 28 34 33 22 16 13 10 13 18 18 17 16 14 14 13 10 12 18 20 17 15 17 17 16 19 22 20 17 17
6 1 8 27 33 23 16 14 14 24 29 16 8 14 12 7 18 28 17 3 2 2 5 21 36 27 11 10 17 11 2 1 5 9 13 14 10 8 6 2 2 7 9 7 7 11 15 17 15 20 29 27 18 19 23 20 18 24 28 29 29 28 25 23 20 16 14 13 17 22 21 15 14 18 18 14 9 7 7 9 15 18 19 20 21
Height
5582 5578 5574 5568 5562 5558 5556 5553 5549 5547 5544 5540 5537 5533 5530 5527 5524 5522 5520 5517 5515 5513 5512 5511 5511 5511 5510 5510 5512 5513 5513 5512 5512 5511 5510 5511 5513 5516 5519 5520 5522 5524 5526 5527 5528 5530 5532 5536 5538 5539 5540 5540 5542 5547 5551 5552 5553 5555 5558 5560 5562 5565 5568 5571 5572 5574 5575 5577 5581 5584 5585 5587 5589 5591 5593 5595 5598 5599 5600 5602 5604 5606 5608 5610 5612
5570 5565 5561 5556 5551 5546 5542 5539 5535 5532 5530 5526 5522 5519 5516 5513 5510 5507 5504 5501 5498 5496 5495 5495 5495 5495 5494 5496 5497 5498 5499 5500 5500 5500 5499 5498 5499 5502 5505 5506 5509 5512 5515 5517 5519 5520 5522 5525 5528 5530 5532 5532 5533 5535 5539 5542 5543 5546 5547 5549 5553 5556 5559 5562 5563 5564 5567 5571 5574 5575 5576 5579 5581 5584 5586 5589 5591 5592 5594 5595 5597 5599 5601 5603 5604
5558 5553 5549 5544 5540 5536 5530 5526 5522 5518 5515 5512 5507 5503 5500 5499 5497 5494 5489 5484 5481 5479 5478 5477 5478 5478 5477 5479 5480 5482 5484 5486 5487 5488 5487 5486 5485 5486 5489 5491 5494 5498 5502 5504 5507 5510 5511 5514 5517 5520 5522 5523 5524 5526 5528 5531 5533 5536 5538 5540 5543 5546 5549 5551 5553 5557 5560 5563 5563 5564 5568 5571 5572 5576 5580 5583 5584 5585 5586 5587 5589 5591 5593 5595 5597
5547 5542 5537 5532 5528 5523 5518 5512 5508 5503 5499 5496 5492 5487 5483 5481 5480 5477 5471 5466 5463 5461 5460 5459 5459 5460 5460 5459 5461 5463 5467 5470 5472 5473 5473 5473 5473 5472 5474 5476 5480 5484 5487 5491 5494 5497 5499 5502 5506 5508 5511 5513 5514 5517 5519 5520 5523 5526 5528 5531 5533 5535 5539 5542 5545 5548 5550 5551 5554 5558 5561 5560 5563 5572 5576 5575 5576 5577 5578 5580 5582 5584 5585 5587 5589
5536 5531 5526 5520 5514 5509 5503 5497 5491 5486 5481 5478 5474 5469 5464 5462 5460 5456 5451 5447 5445 5442 5440 5438 5438 5440 5440 5440 5441 5443 5447 5451 5454 5458 5459 5458 5458 5459 5461 5463 5465 5469 5473 5477 5480 5484 5486 5490 5493 5496 5500 5502 5504 5507 5509 5511 5513 5515 5518 5521 5523 5526 5530 5532 5534 5538 5540 5543 5547 5549 5550 5551 5558 5566 5565 5564 5567 5569 5571 5573 5575 5577 5578 5579 5582
5526 5521 5515 5508 5501 5494 5488 5482 5475 5468 5463 5460 5455 5449 5445 5443 5440 5436 5432 5429 5426 5424 5421 5419 5418 5419 5420 5420 5422 5424 5427 5431 5434 5438 5442 5443 5443 5445 5447 5449 5451 5454 5459 5462 5466 5470 5474 5478 5481 5484 5488 5491 5493 5495 5499 5501 5503 5506 5509 5512 5514 5518 5521 5521 5523 5529 5532 5534 5537 5540 5542 5545 5549 5552 5552 5555 5559 5562 5564 5566 5568 5570 5571 5572 5574
5516 5509 5503 5495 5487 5479 5473 5467 5461 5453 5446 5443 5438 5433 5429 5426 5422 5418 5415 5412 5409 5405 5402 5401 5400 5400 5401 5402 5404 5405 5407 5411 5414 5416 5421 5425 5428 5429 5431 5433 5436 5440 5445 5448 5452 5457 5461 5464 5468 5472 5475 5479 5481 5484 5487 5491 5494 5497 5499 5501 5505 5510 5511 5510 5514 5520 5521 5523 5529 5534 5535 5534 5537 5540 5543 5548 5551 5554 5557 5559 5560 5562 5563 5565 5567
5503 5495 5489 5481 5472 5465 5459 5452 5447 5440 5432 5426 5421 5416 5413 5409 5405 5402 5400 5397 5394 5390 5387 5386 5385 5384 5385 5386 5387 5389 5389 5392 5395 5397 5400 5405 5410 5414 5416 5418 5421 5425 5430 5434 5438 5443 5447 5451 5455 5459 5463 5467 5469 5472 5476 5480 5483 5487 5489 5491 5495 5499 5501 5503 5507 5509 5510 5516 5522 5524 5525 5525 5526 5530 5535 5538 5542 5546 5549 5551 5553 5555 5556 5558 5560
5489 5481 5473 5465 5457 5449 5443 5438 5432 5426 5418 5411 5404 5400 5397 5394 5391 5389 5386 5384 5381 5378 5376 5374 5373 5372 5372 5372 5373 5375 5375 5375 5378 5380 5384 5387 5391 5397 5401 5404 5406 5409 5413 5419 5424 5429 5434 5438 5441 5445 5451 5455 5458 5461 5465 5469 5472 5476 5479 5481 5484 5487 5490 5494 5497 5499 5501 5508 5512 5512 5516 5517 5516 5520 5525 5529 5533 5537 5541 5544 5546 5547 5548 5551 5553
5476 5467 5458 5449 5441 5434 5426 5420 5414 5408 5401 5395 5389 5386 5384 5382 5379 5377 5376 5374 5372 5370 5368 5366 5364 5363 5362 5362 5362 5363 5363 5363 5364 5366 5369 5371 5374 5380 5384 5389 5392 5394 5398 5403 5409 5414 5419 5423 5428 5432 5437 5442 5446 5450 5454 5457 5460 5465 5468 5471 5473 5476 5480 5484 5487 5490 5493 5498 5500 5502 5505 5507 5508 5511 5516 5522 5526 5530 5533 5535 5537 5538 5541 5543 5544
5465 5455 5444 5434 5428 5421 5413 5406 5400 5393 5388 5383 5378 5375 5373 5372 5370 5369 5368 5366 5364 5363 5362 5360 5358 5356 5355 5354 5354 5354 5354 5354 5354 5356 5357 5358 5361 5365 5368 5372 5377 5380 5384 5388 5394 5399 5404 5409 5414 5420 5425 5429 5434 5438 5442 5446 5449 5453 5456 5459 5462 5466 5470 5473 5477 5480 5483 5487 5490 5492 5496 5499 5500 5503 5509 5513 5516 5521 5524 5525 5528 5529 5531 5533 5535
5450 5440 5430 5421 5415 5409 5402 5395 5389 5383 5379 5374 5370 5367 5365 5364 5363 5362 5361 5360 5358 5357 5356 5354 5353 5351 5349 5348 5347 5347 5347 5346 5347 5347 5348 5349 5350 5352 5355 5358 5362 5367 5371 5375 5380 5385 5390 5396 5400 5405 5411 5416 5421 5425 5429 5434 5437 5441 5444 5448 5451 5455 5460 5463 5466 5470 5473 5477 5480 5483 5487 5490 5492 5496 5501 5502 5505 5510 5513 5515 5518 5520 5522 5525 5527
5437 5428 5419 5410 5403 5396 5389 5383 5376 5372 5368 5365 5363 5360 5358 5357 5356 5355 5355 5354 5352 5351 5350 5348 5347 5346 5344 5343 5342 5341 5341 5340 5340 5341 5341 5341 5341 5342 5344 5346 5349 5353 5358 5362 5368 5373 5377 5383 5387 5391 5397 5402 5407 5412 5417 5421 5425 5429 5433 5437 5441 5445 5449 5452 5456 5460 5463 5466 5470 5474 5478 5481 5484 5488 5491 5492 5495 5499 5502 5506 5510 5511 5513 5516 5518
5427 5418 5409 5399 5390 5381 5374 5370 5365 5362 5360 5358 5356 5354 5352 5352 5351 5350 5349 5348 5347 5346 5344 5343 5341 5340 5339 5338 5337 5336 5335 5335 5334 5334 5334 5334 5334 5334 5336 5337 5338 5341 5345 5349 5355 5360 5365 5370 5374 5377 5383 5389 5394 5399 5404 5408 5413 5417 5422 5426 5431 5435 5438 5441 5445 5450 5453 5455 5458 5463 5467 5471 5476 5479 5481 5484 5486 5488 5491 5496 5499 5502 5504 5506 5510
5414 5405 5396 5387 5379 5369 5363 5360 5357 5355 5353 5352 5351 5349 5348 5348 5346 5345 5344 5342 5341 5340 5339 5337 5336 5335 5333 5332 5331 5330 5330 5329 5329 5329 5328 5328 5327 5327 5328 5329 5330 5332 5334 5337 5341 5345 5351 5356 5360 5364 5370 5376 5381 5386 5391 5396 5400 5404 5409 5414 5419 5424 5427 5431 5436 5439 5442 5445 5448 5452 5456 5460 5466 5469 5471 5474 5476 5479 5482 5484 5487 5491 5494 5497 5501
5399 5391 5383 5376 5370 5362 5357 5354 5351 5349 5348 5347 5346 5345 5344 5343 5342 5340 5339 5337 5336 5334 5333 5332 5331 5330 5328 5327 5325 5325 5324 5323 5323 5323 5322 5322 5321 5321 5322 5323 5323 5324 5325 5327 5329 5332 5336 5341 5346 5351 5356 5362 5368 5373 5378 5383 5387 5391 5396 5402 5407 5412 5416 5420 5425 5429 5432 5436 5438 5441 5445 5450 5456 5459 5461 5464 5467 5470 5472 5472 5475 5480 5484 5487 5491
5388 5381 5374 5368 5362 5356 5352 5349 5347 5345 5343 5342 5342 5340 5339 5338 5336 5335 5334 5332 5331 5329 5328 5327 5325 5324 5323 5322 5320 5319 5318 5317 5317 5317 5316 5316 5316 5316 5317 5317 5317 5317 5318 5319 5320 5323 5325 5328 5333 5338 5342 5347 5354 5360 5366 5371 5375 5379 5384 5389 5395 5400 5404 5408 5413 5418 5423 5426 5429 5432 5435 5440 5446 5449 5451 5455 5458 5460 5462 5463 5465 5469 5474 5476 5480
5379 5373 5367 5362 5356 5352 5348 5345 5343 5341 5339 5338 5337 5336 5335 5333 5332 5330 5328 5327 5326 5324 5323 5321 5320 5319 5318 5316 5315 5313 5313 5312 5312 5311 5310 5310 5310 5310 5311 5311 5311 5311 5312 5312 5313 5315 5317 5319 5322 5326 5330 5334 5340 5347 5353 5358 5363 5369 5374 5379 5383 5388 5391 5395 5401 5406 5411 5416 5419 5423 5426 5431 5436 5439 5443 5446 5448 5450 5453 5455 5456 5459 5462 5466 5471
5372 5367 5362 5357 5352 5348 5344 5342 5340 5338 5336 5335 5333 5332 5331 5329 5328 5326 5324 5322 5321 5319 5318 5317 5315 5313 5312 5311 5309 5307 5307 5307 5306 5305 5305 5304 5304 5304 5305 5305 5306 5306 5306 5307 5307 5308 5310 5311 5313 5316 5320 5324 5329 5334 5340 5345 5351 5358 5363 5368 5373 5376 5379 5385 5390 5394 5399 5403 5407 5412 5416 5421 5426 5429 5433 5436 5439 5441 5443 5445 5447 5450 5452 5457 5462
5366 5361 5357 5353 5349 5345 5341 5339 5337 5335 5333 5331 5330 5328 5326 5325 5324 5322 5320 5319 5317 5315 5313 5312 5311 5309 5307 5305 5303 5302 5301 5300 5300 5299 5299 5299 5299 5298 5299 5300 5300 5301 5301 5301 5302 5303 5303 5305 5307 5309 5311 5315 5319 5323 5328 5334 5339 5346 5352 5357 5362 5365 5369 5375 5379 5383 5387 5391 5396 5401 5406 5410 5414 5417 5421 5426 5429 5432 5434 5436 5438 5441 5443 5448 5452
5361 5356 5353 5349 5346 5342 5338 5336 5334 5332 5330 5328 5326 5324 5322 5321 5319 5317 5316 5314 5312 5310 5308 5307 5305 5304 5302 5300 5298 5296 5295 5294 5294 5293 5293 5294 5293 5293 5293 5294 5295 5296 5296 5297 5297 5298 5298 5299 5301 5302 5304 5307 5310 5314 5318 5323 5329 5335 5340 5346 5351 5355 5359 5365 5369 5372 5376 5380 5384 5389 5394 5399 5402 5404 5409 5414 5418 5421 5424 5426 5430 5432 5434 5439 5442
5356 5353 5349 5346 5342 5339 5336 5333 5331 5329 5326 5324 5322 5320 5318 5316 5314 5312 5311 5309 5307 5305 5303 5301 5300 5299 5297 5295 5293 5291 5290 5289 5289 5288 5288 5288 5288 5288 5288 5289 5289 5291 5291 5292 5292 5293 5293 5294 5295 5296 5298 5300 5303 5306 5309 5314 5319 5325 5330 5335 5339 5343 5349 5354 5358 5362 5366 5370 5373 5377 5382 5387 5390 5392 5396 5401 5405 5409 5413 5416 5420 5423 5426 5430 5433
5353 5349 5346 5342 5339 5336 5333 5331 5328 5326 5323 5321 5318 5315 5313 5311 5309 5308 5306 5304 5302 5300 5298 5296 5295 5294 5292 5291 5289 5287 5285 5284 5284 5284 5284 5284 5284 5284 5284 5284 5284 5285 5286 5287 5288 5288 5289 5289 5290 5291 5293 5294 5296 5298 5301 5305 5310 5315 5320 5324 5328 5332 5337 5342 5347 5351 5355 5358 5361 5365 5370 5374 5376 5379 5384 5388 5392 5397 5402 5406 5410 5414 5417 5421 5424
5349 5346 5343 5339 5336 5334 5331 5328 5325 5323 5320 5317 5314 5311 5309 5306 5304 5303 5301 5300 5298 5296 5293 5291 5290 5289 5287 5285 5284 5282 5281 5280 5279 5279 5279 5279 5279 5280 5280 5280 5280 5280 5281 5282 5283 5283 5284 5284 5285 5286 5288 5289 5290 5292 5294 5297 5301 5305 5310 5314 5317 5320 5325 5330 5335 5339 5342 5345 5349 5354 5359 5362 5363 5366 5371 5375 5380 5385 5390 5395 5400 5403 5407 5411 5414
5346 5343 5340 5337 5334 5332 5329 5326 5323 5320 5317 5314 5310 5307 5305 5302 5300 5298 5296 5295 5293 5291 5289 5287 5285 5283 5282 5280 5279 5278 5277 5276 5275 5274 5274 5274 5275 5275 5275 5275 5276 5276 5276 5277 5278 5279 5279 5280 5281 5282 5283 5284 5286 5287 5289 5291 5294 5297 5300 5304 5306 5310 5314 5319 5323 5326 5330 5333 5337 5343 5347 5350 5351 5355 5359 5364 5368 5374 5379 5384 5388 5392 5396 5400 5403
5342 5339 5336 5333 5332 5329 5326 5323 5320 5317 5314 5310 5307 5304 5301 5298 5296 5293 5291 5290 5288 5286 5284 5283 5280 5278 5277 5275 5273 5272 5272 5271 5270 5270 5269 5270 5270 5270 5271 5271 5271 5272 5272 5273 5273 5274 5275 5276 5277 5278 5279 5280 5282 5283 5284 5286 5288 5290 5293 5295 5298 5301 5305 5307 5311 5315 5318 5322 5327 5332 5336 5338 5340 5345 5349 5353 5357 5362 5367 5372 5377 5382 5385 5388 5391
5340 5336 5333 5330 5327 5325 5322 5319 5316 5314 5311 5307 5304 5301 5298 5295 5292 5289 5286 5284 5283 5281 5279 5277 5275 5274 5272 5270 5268 5267 5266 5265 5265 5265 5265 5265 5265 5265 5266 5266 5266 5267 5267 5268 5269 5269 5270 5271 5272 5274 5275 5276 5278 5279 5280 5282 5283 5285 5287 5289 5291 5294 5296 5298 5301 5304 5308 5311 5315 5320 5324 5327 5330 5335 5339 5342 5345 5349 5354 5359 5365 5370 5373 5376 5380
5339 5335 5331 5327 5323 5320 5317 5314 5311 5308 5305 5302 5299 5296 5293 5290 5288 5285 5282 5279 5277 5275 5273 5272 5270 5268 5267 5264 5263 5262 5261 5260 5259 5259 5259 5259 5260 5260 5260 5261 5261 5262 5263 5263 5264 5265 5266 5267 5268 5269 5271 5272 5273 5274 5276 5277 5279 5280 5282 5284 5285 5287 5289 5291 5293 5296 5299 5301 5305 5308 5311 5315 5318 5323 5327 5330 5333 5336 5341 5346 5352 5357 5360 5364 5369
5337 5333 5328 5324 5320 5317 5313 5310 5306 5302 5299 5296 5293 5291 5288 5285 5282 5280 5277 5274 5271 5268 5267 5265 5263 5262 5260 5259 5258 5257 5256 5255 5254 5253 5253 5254 5254 5255 5255 5256 5256 5256 5257 5258 5259 5260 5261 5262 5263 5264 5266 5267 5268 5269 5270 5272 5273 5275 5276 5278 5280 5282 5284 5286 5288 5290 5292 5294 5296 5299 5301 5303 5306 5309 5313 5316 5319 5323 5327 5333 5339 5343 5348 5352 5357
5332 5329 5325 5320 5316 5313 5309 5305 5301 5297 5293 5290 5287 5283 5281 5278 5276 5273 5271 5268 5265 5262 5261 5259 5257 5255 5254 5252 5252 5251 5251 5250 5249 5248 5248 5248 5249 5249 5250 5250 5250 5251 5251 5252 5253 5254 5255 5256 5257 5259 5260 5261 5262 5264 5264 5265 5267 5268 5269 5271 5273 5275 5277 5279 5281 5283 5285 5287 5289 5291 5292 5293 5294 5297 5301 5304 5306 5309 5313 5319 5325 5329 5334 5340 5345
5329 5324 5320 5315 5311 5307 5303 5299 5294 5291 5287 5283 5280 5277 5274 5271 5269 5267 5265 5262 5259 5256 5254 5253 5251 5249 5247 5246 5246 5245 5245 5244 5244 5243 5243 5243 5243 5243 5244 5244 5244 5245 5245 5246 5247 5248 5249 5250 5251 5253 5254 5255 5256 5258 5258 5259 5259 5260 5262 5263 5265 5267 5269 5271 5273 5275 5278 5279 5280 5281 5282 5284 5285 5288 5290 5293 5295 5297 5300 5305 5310 5314 5320 5326 5332
5324 5320 5315 5310 5305 5301 5297 5293 5288 5284 5280 5276 5272 5270 5267 5264 5262 5260 5258 5255 5252 5249 5248 5246 5244 5242 5241 5240 5239 5239 5239 5239 5239 5238 5238 5238 5237 5237 5237 5238 5238 5239 5239 5240 5241 5242 5243 5244 5245 5247 5248 5248 5249 5251 5251 5252 5252 5253 5254 5255 5257 5259 5260 5262 5264 5266 5267 5269 5270 5271 5272 5274 5276 5277 5279 5281 5283 5286 5289 5292 5296 5301 5306 5312 5319
5318 5314 5309 5304 5300 5295 5290 5286 5281 5277 5273 5268 5264 5261 5258 5256 5253 5251 5249 5247 5244 5242 5241 5239 5237 5236 5235 5234 5233 5233 5233 5233 5233 5233 5233 5233 5232 5231 5231 5232 5232 5233 5234 5235 5235 5236 5237 5238 5239 5240 5241 5242 5243 5243 5244 5244 5244 5245 5246 5246 5248 5250 5252 5253 5255 5256 5257 5258 5259 5260 5262 5263 5265 5266 5267 5269 5272 5275 5278 5281 5285 5289 5294 5300 5307
5314 5309 5305 5300 5295 5290 5285 5279 5274 5269 5265 5260 5256 5252 5248 5245 5243 5241 5239 5237 5235 5234 5232 5231 5231 5230 5229 5228 5228 5228 5228 5228 5228 5228 5228 5227 5227 5226 5226 5226 5227 5227 5228 5228 5229 5230 5231 5232 5233 5233 5234 5235 5236 5235 5235 5235 5236 5236 5237 5237 5238 5240 5242 5244 5246 5247 5247 5248 5249 5249 5250 5251 5252 5253 5255 5257 5261 5264 5267 5270 5274 5278 5284 5289 5296
5308 5304 5299 5295 5290 5285 5280 5274 5268 5262 5257 5252 5248 5244 5240 5236 5232 5230 5228 5227 5226 5225 5224 5223 5223 5223 5223 5223 5223 5222 5222 5222 5223 5223 5222 5222 5222 5221 5221 5221 5221 5222 5223 5223 5224 5225 5225 5226 5227 5227 5228 5228 5228 5227 5228 5228 5228 5228 5228 5227 5228 5230 5233 5235 5236 5237 5237 5238 5238 5238 5238 5238 5240 5241 5243 5244 5248 5251 5255 5259 5264 5270 5275 5279 5286
5303 5298 5293 5289 5284 5279 5273 5268 5262 5257 5252 5246 5241 5235 5231 5227 5223 5220 5219 5218 5217 5217 5216 5216 5217 5217 5217 5218 5218 5217 5217 5218 5218 5218 5217 5217 5217 5217 5217 5217 5218 5218 5219 5219 5219 5220 5220 5221 5221 5221 5222 5222 5221 5220 5220 5220 5220 5220 5219 5218 5219 5221 5222 5224 5226 5227 5228 5228 5228 5228 5228 5228 5229 5230 5231 5232 5234 5238 5242 5248 5254 5261 5266 5270 5276
5299 5294 5289 5283 5278 5273 5267 5262 5256 5251 5245 5240 5235 5228 5223 5219 5215 5212 5210 5209 5209 5209 5209 5210 5211 5211 5212 5213 5213 5213 5213 5213 5214 5213 5213 5213 5213 5213 5213 5214 5215 5215 5215 5215 5215 5215 5215 5215 5215 5215 5216 5216 5215 5214 5213 5213 5213 5212 5211 5211 5212 5213 5214 5216 5218 5219 5220 5221 5221 5220 5220 5220 5221 5221 5221 5222 5224 5227 5232 5238 5244 5251 5257 5262 5268
5294 5290 5286 5281 5275 5269 5263 5257 5251 5246 5240 5234 5228 5223 5217 5212 5208 5204 5203 5202 5201 5202 5203 5205 5206 5207 5208 5208 5209 5209 5209 5209 5209 5209 5209 5209 5210 5211 5211 5211 5211 5211 5211 5211 5210 5210 5210 5210 5210 5210 5210 5211 5210 5209 5208 5208 5207 5206 5205 5205 5206 5207 5208 5210 5212 5213 5214 5215 5215 5215 5214 5214 5214 5215 5215 5215 5216 5218 5223 5229 5235 5242 5249 5255 5262
5291 5286 5281 5277 5272 5266 5260 5253 5247 5242 5235 5229 5223 5217 5212 5206 5201 5198 5197 5196 5196 5196 5198 5200 5201 5203 5204 5205 5205 5206 5206 5206 5206 5206 5206 5207 5208 5208 5208 5208 5208 5207 5207 5207 5207 5207 5207 5207 5207 5207 5207 5207 5206 5205 5204 5203 5202 5201 5200 5200 5201 5202 5203 5205 5207 5209 5210 5210 5210 5210 5210 5209 5209 5209 5209 5208 5209 5211 5216 5222 5227 5235 5243 5250 5257
5288 5283 5278 5273 5268 5262 5256 5250 5244 5238 5232 5225 5219 5214 5208 5202 5198 5195 5193 5192 5192 5193 5195 5197 5199 5200 5201 5202 5203 5203 5203 5203 5203 5204 5204 5205 5205 5205 5205 5205 5204 5204 5204 5205 5205 5205 5205 5205 5205 5205 5204 5204 5203 5202 5201 5199 5198 5197 5196 5195 5196 5197 5199 5202 5204 5205 5206 5206 5206 5206 5206 5205 5205 5204 5204 5203 5204 5207 5211 5216 5222 5230 5239 5246 5253
5283 5279 5274 5270 5264 5258 5251 5245 5240 5235 5229 5223 5217 5212 5207 5202 5197 5194 5192 5192 5191 5192 5194 5196 5197 5198 5199 5200 5200 5201 5201 5201 5201 5202 5202 5202 5202 5202 5202 5202 5203 5203 5204 5204 5204 5204 5204 5204 5203 5203 5202 5201 5200 5199 5198 5196 5195 5193 5192 5192 5192 5194 5196 5198 5200 5201 5202 5203 5203 5203 5202 5202 5201 5201 5200 5200 5201 5204 5207 5212 5219 5227 5235 5242 5249
5280 5275 5270 5265 5260 5254 5248 5242 5237 5232 5227 5221 5216 5211 5207 5203 5199 5196 5194 5193 5193 5193 5194 5195 5196 5197 5197 5198 5198 5199 5199 5200 5200 5200 5200 5200 5201 5201 5201 5202 5202 5203 5203 5203 5203 5203 5203 5203 5202 5201 5200 5199 5198 5196 5195 5193 5192 5191 5190 5190 5190 5191 5193 5195 5197 5198 5199 5200 5200 5200 5199 5199 5199 5199 5199 5199 5201 5202 5206 5210 5217 5224 5231 5237 5244
5275 5271 5266 5260 5256 5251 5246 5240 5234 5230 5225 5220 5215 5211 5207 5204 5201 5198 5196 5195 5194 5194 5195 5195 5196 5196 5197 5197 5198 5198 5198 5199 5199 5199 5199 5199 5200 5201 5202 5202 5202 5203 5203 5203 5202 5202 5202 5201 5201 5200 5199 5197 5196 5195 5193 5191 5190 5189 5188 5188 5188 5190 5191 5192 5193 5195 5196 5197 5198 5197 5197 5198 5198 5199 5199 5200 5201 5203 5206 5210 5215 5221 5228 5234 5241
5270 5266 5262 5257 5253 5248 5243 5237 5232 5228 5224 5219 5215 5211 5208 5205 5202 5200 5198 5197 5196 5196 5196 5196 5196 5196 5196 5197 5197 5198 5198 5198 5198 5198 5199 5199 5200 5201 5202 5203 5203 5203 5203 5202 5202 5201 5201 5200 5200 5199 5198 5196 5195 5193 5191 5190 5188 5187 5186 5186 5187 5188 5188 5189 5191 5193 5195 5196 5196 5196 5197 5197 5198 5199 5199 5200 5202 5204 5207 5210 5215 5221 5227 5234 5241
5266 5262 5258 5253 5249 5244 5240 5235 5230 5226 5222 5218 5214 5211 5208 5206 5204 5202 5200 5199 5198 5197 5196 5196 5196 5196 5197 5197 5197 5197 5197 5198 5198 5199 5199 5200 5201 5202 5202 5203 5203 5203 5203 5202 5201 5201 5200 5199 5199 5198 5197 5196 5194 5193 5191 5189 5186 5185 5184 5184 5185 5185 5186 5187 5189 5192 5194 5195 5195 5196 5196 5197 5197 5198 5199 5201 5203 5206 5208 5211 5216 5222 5228 5235 5242
5262 5259 5254 5250 5245 5241 5237 5232 5228 5224 5221 5217 5214 5212 5209 5208 5206 5204 5202 5200 5199 5198 5197 5197 5197 5197 5197 5197 5197 5197 5198 5199 5199 5200 5200 5201 5202 5202 5203 5203 5203 5203 5203 5202 5201 5200 5199 5198 5198 5197 5196 5195 5194 5192 5191 5189 5186 5184 5183 5183 5183 5183 5185 5187 5189 5191 5193 5194 5195 5195 5196 5196 5197 5199 5200 5202 5205 5207 5210 5214 5219 5224 5229 5235 5241
5258 5255 5251 5247 5243 5238 5234 5230 5226 5222 5219 5216 5214 5212 5210 5208 5206 5205 5203 5201 5200 5199 5198 5198 5198 5198 5197 5197 5198 5198 5199 5200 5200 5201 5201 5202 5202 5203 5203 5204 5204 5203 5202 5201 5200 5200 5199 5198 5197 5196 5195 5194 5194 5193 5191 5189 5187 5185 5185 5184 5184 5185 5186 5188 5189 5191 5192 5193 5194 5195 5196 5197 5199 5200 5202 5204 5207 5209 5212 5216 5220 5224 5229 5235 5241
5255 5251 5247 5243 5239 5235 5231 5227 5224 5221 5218 5215 5213 5212 5210 5208 5207 5205 5203 5202 5201 5200 5200 5199 5199 5198 5198 5198 5198 5199 5200 5201 5201 5202 5202 5203 5203 5204 5204 5204 5204 5204 5203 5202 5201 5200 5199 5197 5196 5196 5195 5194 5194 5193 5191 5189 5188 5187 5187 5187 5187 5187 5188 5189 5190 5191 5192 5193 5194 5195 5197 5198 5200 5202 5204 5206 5209 5211 5214 5218 5221 5225 5229 5235 5240
5251 5247 5244 5239 5235 5231 5228 5225 5222 5219 5216 5214 5213 5211 5210 5208 5207 5206 5204 5203 5202 5201 5201 5200 5200 5199 5199 5199 5200 5200 5201 5202 5203 5203 5203 5203 5204 5204 5204 5204 5204 5204 5203 5203 5201 5200 5198 5197 5196 5195 5195 5194 5194 5193 5192 5190 5189 5189 5188 5188 5189 5189 5190 5191 5192 5193 5194 5195 5196 5197 5198 5200 5202 5203 5206 5208 5210 5213 5216 5219 5222 5226 5230 5234 5239
5248 5244 5241 5236 5231 5228 5225 5223 5220 5218 5215 5213 5212 5211 5210 5209 5207 5206 5205 5204 5203 5203 5202 5201 5200 5200 5200 5200 5201 5202 5203 5203 5204 5204 5204 5204 5204 5204 5204 5204 5204 5204 5203 5202 5201 5200 5198 5197 5196 5195 5194 5194 5194 5193 5193 5192 5191 5190 5190 5190 5190 5191 5191 5192 5193 5194 5195 5196 5198 5199 5200 5202 5203 5205 5207 5209 5211 5214 5217 5220 5223 5226 5230 5234 5238
5245 5242 5238 5234 5229 5226 5224 5221 5219 5217 5214 5213 5211 5210 5210 5209 5208 5207 5206 5205 5204 5204 5203 5202 5201 5201 5201 5202 5202 5203 5204 5204 5205 5205 5205 5205 5205 5205 5205 5205 5204 5204 5203 5202 5201 5200 5199 5198 5197 5196 5195 5195 5195 5195 5194 5194 5193 5192 5192 5192 5192 5192 5193 5193 5194 5195 5196 5198 5199 5200 5201 5203 5204 5206 5208 5211 5213 5215 5218 5221 5224 5227 5230 5234 5237